Year,Month,Day,Hour,Minute,Value (Times are PST for temperature in C)
2013,09,26,00,00,8.40
2013,09,26,00,01,8.40
2013,09,26,00,02,8.40
2013,09,26,00,03,8.40
2013,09,26,00,04,8.40
2013,09,26,00,05,8.40
2013,09,26,00,06,8.40
2013,09,26,00,07,8.40
2013,09,26,00,08,8.40
2013,09,26,00,09,8.40
2013,09,26,00,10,8.40
2013,09,26,00,11,8.40
2013,09,26,00,12,8.40
2013,09,26,00,13,8.30
2013,09,26,00,14,8.30
2013,09,26,00,15,8.30
2013,09,26,00,16,8.30
2013,09,26,00,17,8.30
2013,09,26,00,18,8.30
2013,09,26,00,19,8.30
2013,09,26,00,20,8.30
2013,09,26,00,21,8.30
2013,09,26,00,22,8.20
2013,09,26,00,23,8.20
2013,09,26,00,24,8.20
2013,09,26,00,25,8.20
2013,09,26,00,26,8.20
2013,09,26,00,27,8.20
2013,09,26,00,28,8.20
2013,09,26,00,29,8.20
2013,09,26,00,30,8.20
2013,09,26,00,31,8.20
2013,09,26,00,32,8.20
2013,09,26,00,33,8.20
2013,09,26,00,34,8.20
2013,09,26,00,35,8.20
2013,09,26,00,36,8.10
2013,09,26,00,37,8.10
2013,09,26,00,38,8.10
2013,09,26,00,39,8.10
2013,09,26,00,40,8.10
2013,09,26,00,41,8.10
2013,09,26,00,42,8.10
2013,09,26,00,43,8.10
2013,09,26,00,44,8.00
2013,09,26,00,45,8.00
2013,09,26,00,46,8.00
2013,09,26,00,47,7.90
2013,09,26,00,48,7.90
2013,09,26,00,49,7.90
2013,09,26,00,50,7.90
2013,09,26,00,51,7.90
2013,09,26,00,52,7.90
2013,09,26,00,53,7.90
2013,09,26,00,54,7.90
2013,09,26,00,55,7.90
2013,09,26,00,56,7.90
2013,09,26,00,57,7.80
2013,09,26,00,58,7.80
2013,09,26,00,59,7.80
2013,09,26,01,00,7.80
2013,09,26,01,01,7.80
2013,09,26,01,02,7.80
2013,09,26,01,03,7.80
2013,09,26,01,04,7.80
2013,09,26,01,05,7.80
2013,09,26,01,06,7.80
2013,09,26,01,07,7.80
2013,09,26,01,08,7.80
2013,09,26,01,09,7.80
2013,09,26,01,10,7.80
2013,09,26,01,11,7.80
2013,09,26,01,12,7.80
2013,09,26,01,13,7.80
2013,09,26,01,14,7.80
2013,09,26,01,15,7.80
2013,09,26,01,16,7.80
2013,09,26,01,17,7.80
2013,09,26,01,18,7.80
2013,09,26,01,19,7.80
2013,09,26,01,20,7.80
2013,09,26,01,21,7.70
2013,09,26,01,22,7.70
2013,09,26,01,23,7.70
2013,09,26,01,24,7.70
2013,09,26,01,25,7.70
2013,09,26,01,26,7.70
2013,09,26,01,27,7.70
2013,09,26,01,28,7.70
2013,09,26,01,29,7.70
2013,09,26,01,30,7.70
2013,09,26,01,31,7.70
2013,09,26,01,32,7.70
2013,09,26,01,33,7.70
2013,09,26,01,34,7.70
2013,09,26,01,35,7.70
2013,09,26,01,36,7.70
2013,09,26,01,37,7.70
2013,09,26,01,38,7.70
2013,09,26,01,39,7.70
2013,09,26,01,40,7.60
2013,09,26,01,41,7.60
2013,09,26,01,42,7.60
2013,09,26,01,43,7.60
2013,09,26,01,44,7.60
2013,09,26,01,45,7.60
2013,09,26,01,46,7.60
2013,09,26,01,47,7.60
2013,09,26,01,48,7.60
2013,09,26,01,49,7.60
2013,09,26,01,50,7.60
2013,09,26,01,51,7.60
2013,09,26,01,52,7.60
2013,09,26,01,53,7.60
2013,09,26,01,54,7.60
2013,09,26,01,55,7.60
2013,09,26,01,56,7.60
2013,09,26,01,57,7.60
2013,09,26,01,58,7.60
2013,09,26,01,59,7.60
2013,09,26,02,00,7.60
2013,09,26,02,01,7.60
2013,09,26,02,02,7.60
2013,09,26,02,03,7.60
2013,09,26,02,04,7.60
2013,09,26,02,05,7.60
2013,09,26,02,06,7.60
2013,09,26,02,07,7.60
2013,09,26,02,08,7.60
2013,09,26,02,09,7.60
2013,09,26,02,10,7.60
2013,09,26,02,11,7.60
2013,09,26,02,12,7.60
2013,09,26,02,13,7.60
2013,09,26,02,14,7.60
2013,09,26,02,15,7.60
2013,09,26,02,16,7.60
2013,09,26,02,17,7.60
2013,09,26,02,18,7.60
2013,09,26,02,19,7.60
2013,09,26,02,20,7.60
2013,09,26,02,21,7.60
2013,09,26,02,22,7.60
2013,09,26,02,23,7.60
2013,09,26,02,24,7.60
2013,09,26,02,25,7.60
2013,09,26,02,26,7.60
2013,09,26,02,27,7.50
2013,09,26,02,28,7.50
2013,09,26,02,29,7.50
2013,09,26,02,30,7.50
2013,09,26,02,31,7.50
2013,09,26,02,32,7.50
2013,09,26,02,33,7.50
2013,09,26,02,34,7.40
2013,09,26,02,35,7.40
2013,09,26,02,36,7.40
2013,09,26,02,37,7.40
2013,09,26,02,38,7.30
2013,09,26,02,39,7.30
2013,09,26,02,40,7.30
2013,09,26,02,41,7.30
2013,09,26,02,42,7.30
2013,09,26,02,43,7.30
2013,09,26,02,44,7.30
2013,09,26,02,45,7.30
2013,09,26,02,46,7.30
2013,09,26,02,47,7.30
2013,09,26,02,48,7.30
2013,09,26,02,49,7.30
2013,09,26,02,50,7.30
2013,09,26,02,51,7.30
2013,09,26,02,52,7.20
2013,09,26,02,53,7.20
2013,09,26,02,54,7.20
2013,09,26,02,55,7.20
2013,09,26,02,56,7.20
2013,09,26,02,57,7.20
2013,09,26,02,58,7.20
2013,09,26,02,59,7.20
2013,09,26,03,00,7.30
2013,09,26,03,01,7.30
2013,09,26,03,02,7.30
2013,09,26,03,03,7.30
2013,09,26,03,04,7.30
2013,09,26,03,05,7.30
2013,09,26,03,06,7.30
2013,09,26,03,07,7.30
2013,09,26,03,08,7.30
2013,09,26,03,09,7.30
2013,09,26,03,10,7.30
2013,09,26,03,11,7.20
2013,09,26,03,12,7.20
2013,09,26,03,13,7.20
2013,09,26,03,14,7.20
2013,09,26,03,15,7.20
2013,09,26,03,16,7.10
2013,09,26,03,17,7.10
2013,09,26,03,18,7.10
2013,09,26,03,19,7.00
2013,09,26,03,20,7.00
2013,09,26,03,21,7.00
2013,09,26,03,22,7.00
2013,09,26,03,23,7.00
2013,09,26,03,24,6.90
2013,09,26,03,25,6.90
2013,09,26,03,26,6.90
2013,09,26,03,27,6.80
2013,09,26,03,28,6.80
2013,09,26,03,29,6.80
2013,09,26,03,30,6.80
2013,09,26,03,31,6.80
2013,09,26,03,32,6.80
2013,09,26,03,33,6.80
2013,09,26,03,34,6.80
2013,09,26,03,35,6.80
2013,09,26,03,36,6.80
2013,09,26,03,37,6.80
2013,09,26,03,38,6.80
2013,09,26,03,39,6.80
2013,09,26,03,40,6.80
2013,09,26,03,41,6.80
2013,09,26,03,42,6.80
2013,09,26,03,43,6.80
2013,09,26,03,44,6.80
2013,09,26,03,45,6.80
2013,09,26,03,46,6.80
2013,09,26,03,47,6.80
2013,09,26,03,48,6.80
2013,09,26,03,49,6.80
2013,09,26,03,50,6.80
2013,09,26,03,51,6.80
2013,09,26,03,52,6.80
2013,09,26,03,53,6.80
2013,09,26,03,54,6.80
2013,09,26,03,55,6.80
2013,09,26,03,56,6.80
2013,09,26,03,57,6.80
2013,09,26,03,58,6.80
2013,09,26,03,59,6.80
2013,09,26,04,00,6.80
2013,09,26,04,01,6.80
2013,09,26,04,02,6.80
2013,09,26,04,03,6.80
2013,09,26,04,04,6.80
2013,09,26,04,05,6.80
2013,09,26,04,06,6.80
2013,09,26,04,07,6.80
2013,09,26,04,08,6.80
2013,09,26,04,09,6.80
2013,09,26,04,10,6.80
2013,09,26,04,11,6.80
2013,09,26,04,12,6.80
2013,09,26,04,13,6.80
2013,09,26,04,14,6.80
2013,09,26,04,15,6.80
2013,09,26,04,16,6.80
2013,09,26,04,17,6.90
2013,09,26,04,18,6.90
2013,09,26,04,19,6.80
2013,09,26,04,20,6.90
2013,09,26,04,21,6.90
2013,09,26,04,22,6.90
2013,09,26,04,23,6.90
2013,09,26,04,24,6.90
2013,09,26,04,25,6.90
2013,09,26,04,26,6.90
2013,09,26,04,27,6.90
2013,09,26,04,28,6.90
2013,09,26,04,29,6.90
2013,09,26,04,30,6.90
2013,09,26,04,31,6.90
2013,09,26,04,32,6.90
2013,09,26,04,33,6.90
2013,09,26,04,34,6.90
2013,09,26,04,35,6.90
2013,09,26,04,36,6.90
2013,09,26,04,37,6.90
2013,09,26,04,38,6.90
2013,09,26,04,39,6.90
2013,09,26,04,40,6.90
2013,09,26,04,41,6.90
2013,09,26,04,42,6.90
2013,09,26,04,43,6.90
2013,09,26,04,44,6.90
2013,09,26,04,45,6.80
2013,09,26,04,46,6.80
2013,09,26,04,47,6.80
2013,09,26,04,48,6.80
2013,09,26,04,49,6.80
2013,09,26,04,50,6.80
2013,09,26,04,51,6.80
2013,09,26,04,52,6.80
2013,09,26,04,53,6.80
2013,09,26,04,54,6.80
2013,09,26,04,55,6.80
2013,09,26,04,56,6.80
2013,09,26,04,57,6.80
2013,09,26,04,58,6.80
2013,09,26,04,59,6.80
2013,09,26,05,00,6.80
2013,09,26,05,01,6.80
2013,09,26,05,02,6.80
2013,09,26,05,03,6.80
2013,09,26,05,04,6.80
2013,09,26,05,05,6.80
2013,09,26,05,06,6.80
2013,09,26,05,07,6.80
2013,09,26,05,08,6.90
2013,09,26,05,09,6.90
2013,09,26,05,10,6.90
2013,09,26,05,11,6.90
2013,09,26,05,12,6.90
2013,09,26,05,13,7.00
2013,09,26,05,14,7.00
2013,09,26,05,15,7.00
2013,09,26,05,16,7.10
2013,09,26,05,17,7.10
2013,09,26,05,18,7.10
2013,09,26,05,19,7.10
2013,09,26,05,20,7.10
2013,09,26,05,21,7.10
2013,09,26,05,22,7.10
2013,09,26,05,23,7.20
2013,09,26,05,24,7.20
2013,09,26,05,25,7.20
2013,09,26,05,26,7.20
2013,09,26,05,27,7.20
2013,09,26,05,28,7.30
2013,09,26,05,29,7.30
2013,09,26,05,30,7.30
2013,09,26,05,31,7.30
2013,09,26,05,32,7.30
2013,09,26,05,33,7.30
2013,09,26,05,34,7.30
2013,09,26,05,35,7.30
2013,09,26,05,36,7.30
2013,09,26,05,37,7.30
2013,09,26,05,38,7.30
2013,09,26,05,39,7.30
2013,09,26,05,40,7.30
2013,09,26,05,41,7.20
2013,09,26,05,42,7.20
2013,09,26,05,43,7.20
2013,09,26,05,44,7.20
2013,09,26,05,45,7.10
2013,09,26,05,46,7.10
2013,09,26,05,47,7.10
2013,09,26,05,48,7.10
2013,09,26,05,49,7.10
2013,09,26,05,50,7.00
2013,09,26,05,51,7.00
2013,09,26,05,52,7.00
2013,09,26,05,53,7.00
2013,09,26,05,54,7.00
2013,09,26,05,55,7.00
2013,09,26,05,56,7.00
2013,09,26,05,57,7.00
2013,09,26,05,58,7.00
2013,09,26,05,59,7.00
2013,09,26,06,00,7.00
2013,09,26,06,01,7.00
2013,09,26,06,02,7.00
2013,09,26,06,03,7.00
2013,09,26,06,04,7.00
2013,09,26,06,05,7.00
2013,09,26,06,06,7.00
2013,09,26,06,07,7.00
2013,09,26,06,08,7.00
2013,09,26,06,09,6.90
2013,09,26,06,10,6.90
2013,09,26,06,11,6.90
2013,09,26,06,12,6.90
2013,09,26,06,13,6.90
2013,09,26,06,14,6.90
2013,09,26,06,15,6.90
2013,09,26,06,16,6.90
2013,09,26,06,17,6.90
2013,09,26,06,18,6.90
2013,09,26,06,19,6.90
2013,09,26,06,20,6.80
2013,09,26,06,21,6.80
2013,09,26,06,22,6.80
2013,09,26,06,23,6.80
2013,09,26,06,24,6.80
2013,09,26,06,25,6.80
2013,09,26,06,26,6.80
2013,09,26,06,27,6.80
2013,09,26,06,28,6.80
2013,09,26,06,29,6.80
2013,09,26,06,30,6.80
2013,09,26,06,31,6.80
2013,09,26,06,32,6.80
2013,09,26,06,33,6.80
2013,09,26,06,34,6.80
2013,09,26,06,35,6.80
2013,09,26,06,36,6.80
2013,09,26,06,37,6.80
2013,09,26,06,38,6.80
2013,09,26,06,39,6.80
2013,09,26,06,40,6.80
2013,09,26,06,41,6.80
2013,09,26,06,42,6.70
2013,09,26,06,43,6.70
2013,09,26,06,44,6.70
2013,09,26,06,45,6.70
2013,09,26,06,46,6.70
2013,09,26,06,47,6.70
2013,09,26,06,48,6.70
2013,09,26,06,49,6.70
2013,09,26,06,50,6.70
2013,09,26,06,51,6.70
2013,09,26,06,52,6.70
2013,09,26,06,53,6.70
2013,09,26,06,54,6.70
2013,09,26,06,55,6.70
2013,09,26,06,56,6.70
2013,09,26,06,57,6.70
2013,09,26,06,58,6.70
2013,09,26,06,59,6.70
2013,09,26,07,00,6.70
2013,09,26,07,01,6.70
2013,09,26,07,02,6.70
2013,09,26,07,03,6.70
2013,09,26,07,04,6.70
2013,09,26,07,05,6.70
2013,09,26,07,06,6.70
2013,09,26,07,07,6.70
2013,09,26,07,08,6.70
2013,09,26,07,09,6.70
2013,09,26,07,10,6.70
2013,09,26,07,11,6.70
2013,09,26,07,12,6.70
2013,09,26,07,13,6.70
2013,09,26,07,14,6.70
2013,09,26,07,15,6.70
2013,09,26,07,16,6.70
2013,09,26,07,17,6.70
2013,09,26,07,18,6.70
2013,09,26,07,19,6.70
2013,09,26,07,20,6.70
2013,09,26,07,21,6.70
2013,09,26,07,22,6.70
2013,09,26,07,23,6.70
2013,09,26,07,24,6.70
2013,09,26,07,25,6.70
2013,09,26,07,26,6.70
2013,09,26,07,27,6.70
2013,09,26,07,28,6.70
2013,09,26,07,29,6.70
2013,09,26,07,30,6.70
2013,09,26,07,31,6.70
2013,09,26,07,32,6.80
2013,09,26,07,33,6.80
2013,09,26,07,34,6.80
2013,09,26,07,35,6.80
2013,09,26,07,36,6.80
2013,09,26,07,37,6.80
2013,09,26,07,38,6.90
2013,09,26,07,39,6.90
2013,09,26,07,40,6.90
2013,09,26,07,41,6.90
2013,09,26,07,42,6.90
2013,09,26,07,43,6.90
2013,09,26,07,44,6.90
2013,09,26,07,45,6.90
2013,09,26,07,46,6.90
2013,09,26,07,47,6.90
2013,09,26,07,48,6.90
2013,09,26,07,49,6.90
2013,09,26,07,50,6.90
2013,09,26,07,51,6.90
2013,09,26,07,52,6.90
2013,09,26,07,53,6.90
2013,09,26,07,54,7.00
2013,09,26,07,55,7.00
2013,09,26,07,56,7.00
2013,09,26,07,57,7.00
2013,09,26,07,58,7.10
2013,09,26,07,59,7.10
2013,09,26,08,00,7.10
2013,09,26,08,01,7.20
2013,09,26,08,02,7.20
2013,09,26,08,03,7.20
2013,09,26,08,04,7.30
2013,09,26,08,05,7.40
2013,09,26,08,06,7.40
2013,09,26,08,07,7.40
2013,09,26,08,08,7.50
2013,09,26,08,09,7.60
2013,09,26,08,10,7.60
2013,09,26,08,11,7.70
2013,09,26,08,12,7.70
2013,09,26,08,13,7.80
2013,09,26,08,14,7.80
2013,09,26,08,15,7.80
2013,09,26,08,16,7.90
2013,09,26,08,17,7.90
2013,09,26,08,18,7.90
2013,09,26,08,19,8.00
2013,09,26,08,20,8.10
2013,09,26,08,21,8.10
2013,09,26,08,22,8.20
2013,09,26,08,23,8.20
2013,09,26,08,24,8.20
2013,09,26,08,25,8.30
2013,09,26,08,26,8.30
2013,09,26,08,27,8.30
2013,09,26,08,28,8.30
2013,09,26,08,29,8.40
2013,09,26,08,30,8.40
2013,09,26,08,31,8.40
2013,09,26,08,32,8.40
2013,09,26,08,33,8.40
2013,09,26,08,34,8.40
2013,09,26,08,35,8.50
2013,09,26,08,36,8.50
2013,09,26,08,37,8.50
2013,09,26,08,38,8.50
2013,09,26,08,39,8.50
2013,09,26,08,40,8.60
2013,09,26,08,41,8.60
2013,09,26,08,42,8.60
2013,09,26,08,43,8.60
2013,09,26,08,44,8.70
2013,09,26,08,45,8.70
2013,09,26,08,46,8.70
2013,09,26,08,47,8.70
2013,09,26,08,48,8.80
2013,09,26,08,49,8.80
2013,09,26,08,50,8.80
2013,09,26,08,51,8.80
2013,09,26,08,52,8.80
2013,09,26,08,53,8.90
2013,09,26,08,54,8.90
2013,09,26,08,55,8.90
2013,09,26,08,56,8.90
2013,09,26,08,57,9.00
2013,09,26,08,58,9.00
2013,09,26,08,59,9.10
2013,09,26,09,00,9.10
2013,09,26,09,01,9.10
2013,09,26,09,02,9.20
2013,09,26,09,03,9.20
2013,09,26,09,04,9.30
2013,09,26,09,05,9.30
2013,09,26,09,06,9.40
2013,09,26,09,07,9.40
2013,09,26,09,08,9.50
2013,09,26,09,09,9.50
2013,09,26,09,10,9.60
2013,09,26,09,11,9.60
2013,09,26,09,12,9.70
2013,09,26,09,13,9.70
2013,09,26,09,14,9.70
2013,09,26,09,15,9.80
2013,09,26,09,16,9.80
2013,09,26,09,17,9.80
2013,09,26,09,18,9.90
2013,09,26,09,19,9.90
2013,09,26,09,20,9.90
2013,09,26,09,21,10.00
2013,09,26,09,22,10.10
2013,09,26,09,23,10.10
2013,09,26,09,24,10.10
2013,09,26,09,25,10.20
2013,09,26,09,26,10.20
2013,09,26,09,27,10.20
2013,09,26,09,28,10.20
2013,09,26,09,29,10.30
2013,09,26,09,30,10.30
2013,09,26,09,31,10.40
2013,09,26,09,32,10.40
2013,09,26,09,33,10.50
2013,09,26,09,34,10.50
2013,09,26,09,35,10.60
2013,09,26,09,36,10.60
2013,09,26,09,37,10.70
2013,09,26,09,38,10.70
2013,09,26,09,39,10.80
2013,09,26,09,40,10.90
2013,09,26,09,41,11.00
2013,09,26,09,42,11.00
2013,09,26,09,43,11.10
2013,09,26,09,44,11.20
2013,09,26,09,45,11.20
2013,09,26,09,46,11.30
2013,09,26,09,47,11.40
2013,09,26,09,48,11.40
2013,09,26,09,49,11.50
2013,09,26,09,50,11.50
2013,09,26,09,51,11.60
2013,09,26,09,52,11.60
2013,09,26,09,53,11.70
2013,09,26,09,54,11.70
2013,09,26,09,55,11.80
2013,09,26,09,56,11.80
2013,09,26,09,57,11.80
2013,09,26,09,58,11.80
2013,09,26,09,59,11.90
2013,09,26,10,00,12.00
2013,09,26,10,01,12.00
2013,09,26,10,02,12.00
2013,09,26,10,03,12.10
2013,09,26,10,04,12.10
2013,09,26,10,05,12.10
2013,09,26,10,06,12.10
2013,09,26,10,07,12.20
2013,09,26,10,08,12.20
2013,09,26,10,09,12.20
2013,09,26,10,10,12.20
2013,09,26,10,11,12.20
2013,09,26,10,12,12.30
2013,09,26,10,13,12.30
2013,09,26,10,14,12.30
2013,09,26,10,15,12.30
2013,09,26,10,16,12.40
2013,09,26,10,17,12.40
2013,09,26,10,18,12.40
2013,09,26,10,19,12.40
2013,09,26,10,20,12.50
2013,09,26,10,21,12.50
2013,09,26,10,22,12.50
2013,09,26,10,23,12.50
2013,09,26,10,24,12.50
2013,09,26,10,25,12.60
2013,09,26,10,26,12.60
2013,09,26,10,27,12.60
2013,09,26,10,28,12.50
2013,09,26,10,29,12.60
2013,09,26,10,30,12.60
2013,09,26,10,31,12.60
2013,09,26,10,32,12.60
2013,09,26,10,33,12.60
2013,09,26,10,34,12.60
2013,09,26,10,35,12.60
2013,09,26,10,36,12.60
2013,09,26,10,37,12.60
2013,09,26,10,38,12.60
2013,09,26,10,39,12.60
2013,09,26,10,40,12.60
2013,09,26,10,41,12.70
2013,09,26,10,42,12.70
2013,09,26,10,43,12.70
2013,09,26,10,44,12.70
2013,09,26,10,45,12.70
2013,09,26,10,46,12.70
2013,09,26,10,47,12.80
2013,09,26,10,48,12.80
2013,09,26,10,49,12.80
2013,09,26,10,50,12.80
2013,09,26,10,51,12.80
2013,09,26,10,52,12.80
2013,09,26,10,53,12.80
2013,09,26,10,54,12.80
2013,09,26,10,55,12.90
2013,09,26,10,56,12.90
2013,09,26,10,57,13.00
2013,09,26,10,58,13.00
2013,09,26,10,59,13.10
2013,09,26,11,00,13.10
2013,09,26,11,01,13.10
2013,09,26,11,02,13.20
2013,09,26,11,03,13.20
2013,09,26,11,04,13.20
2013,09,26,11,05,13.20
2013,09,26,11,06,13.20
2013,09,26,11,07,13.20
2013,09,26,11,08,13.20
2013,09,26,11,09,13.20
2013,09,26,11,10,13.20
2013,09,26,11,11,13.20
2013,09,26,11,12,13.20
2013,09,26,11,13,13.20
2013,09,26,11,14,13.20
2013,09,26,11,15,13.20
2013,09,26,11,16,13.20
2013,09,26,11,17,13.20
2013,09,26,11,18,13.20
2013,09,26,11,19,13.20
2013,09,26,11,20,13.20
2013,09,26,11,21,13.20
2013,09,26,11,22,13.30
2013,09,26,11,23,13.30
2013,09,26,11,24,13.30
2013,09,26,11,25,13.30
2013,09,26,11,26,13.40
2013,09,26,11,27,13.40
2013,09,26,11,28,13.40
2013,09,26,11,29,13.50
2013,09,26,11,30,13.50
2013,09,26,11,31,13.50
2013,09,26,11,32,13.50
2013,09,26,11,33,13.50
2013,09,26,11,34,13.50
2013,09,26,11,35,13.50
2013,09,26,11,36,13.50
2013,09,26,11,37,13.50
2013,09,26,11,38,13.60
2013,09,26,11,39,13.60
2013,09,26,11,40,13.60
2013,09,26,11,41,13.60
2013,09,26,11,42,13.70
2013,09,26,11,43,13.70
2013,09,26,11,44,13.70
2013,09,26,11,45,13.70
2013,09,26,11,46,13.70
2013,09,26,11,47,13.60
2013,09,26,11,48,13.60
2013,09,26,11,49,13.60
2013,09,26,11,50,13.60
2013,09,26,11,51,13.60
2013,09,26,11,52,13.60
2013,09,26,11,53,13.60
2013,09,26,11,54,13.60
2013,09,26,11,55,13.60
2013,09,26,11,56,13.70
2013,09,26,11,57,13.70
2013,09,26,11,58,13.80
2013,09,26,11,59,13.80
2013,09,26,12,00,13.80
2013,09,26,12,01,13.90
2013,09,26,12,02,13.90
2013,09,26,12,03,14.00
2013,09,26,12,04,14.00
2013,09,26,12,05,14.10
2013,09,26,12,06,14.20
2013,09,26,12,07,14.20
2013,09,26,12,08,14.20
2013,09,26,12,09,14.30
2013,09,26,12,10,14.30
2013,09,26,12,11,14.30
2013,09,26,12,12,14.30
2013,09,26,12,13,14.30
2013,09,26,12,14,14.30
2013,09,26,12,15,14.30
2013,09,26,12,16,14.30
2013,09,26,12,17,14.30
2013,09,26,12,18,14.30
2013,09,26,12,19,14.30
2013,09,26,12,20,14.30
2013,09,26,12,21,14.40
2013,09,26,12,22,14.40
2013,09,26,12,23,14.50
2013,09,26,12,24,14.50
2013,09,26,12,25,14.60
2013,09,26,12,26,14.60
2013,09,26,12,27,14.70
2013,09,26,12,28,14.70
2013,09,26,12,29,14.70
2013,09,26,12,30,14.70
2013,09,26,12,31,14.80
2013,09,26,12,32,14.80
2013,09,26,12,33,14.90
2013,09,26,12,34,14.90
2013,09,26,12,35,15.00
2013,09,26,12,36,15.10
2013,09,26,12,37,15.10
2013,09,26,12,38,15.20
2013,09,26,12,39,15.20
2013,09,26,12,40,15.20
2013,09,26,12,41,15.20
2013,09,26,12,42,15.10
2013,09,26,12,43,15.10
2013,09,26,12,44,15.10
2013,09,26,12,45,15.10
2013,09,26,12,46,15.10
2013,09,26,12,47,15.10
2013,09,26,12,48,15.10
2013,09,26,12,49,15.20
2013,09,26,12,50,15.20
2013,09,26,12,51,15.20
2013,09,26,12,52,15.20
2013,09,26,12,53,15.20
2013,09,26,12,54,15.30
2013,09,26,12,55,15.30
2013,09,26,12,56,15.40
2013,09,26,12,57,15.50
2013,09,26,12,58,15.50
2013,09,26,12,59,15.50
2013,09,26,13,00,15.60
2013,09,26,13,01,15.70
2013,09,26,13,02,15.70
2013,09,26,13,03,15.60
2013,09,26,13,04,15.60
2013,09,26,13,05,15.60
2013,09,26,13,06,15.60
2013,09,26,13,07,15.50
2013,09,26,13,08,15.50
2013,09,26,13,09,15.30
2013,09,26,13,10,15.30
2013,09,26,13,11,15.20
2013,09,26,13,12,15.20
2013,09,26,13,13,15.10
2013,09,26,13,14,15.10
2013,09,26,13,15,15.00
2013,09,26,13,16,15.00
2013,09,26,13,17,14.90
2013,09,26,13,18,14.90
2013,09,26,13,19,14.90
2013,09,26,13,20,14.90
2013,09,26,13,21,14.90
2013,09,26,13,22,15.00
2013,09,26,13,23,15.10
2013,09,26,13,24,15.10
2013,09,26,13,25,15.20
2013,09,26,13,26,15.20
2013,09,26,13,27,15.20
2013,09,26,13,28,15.30
2013,09,26,13,29,15.30
2013,09,26,13,30,15.40
2013,09,26,13,31,15.40
2013,09,26,13,32,15.40
2013,09,26,13,33,15.50
2013,09,26,13,34,15.50
2013,09,26,13,35,15.60
2013,09,26,13,36,15.60
2013,09,26,13,37,15.60
2013,09,26,13,38,15.70
2013,09,26,13,39,15.70
2013,09,26,13,40,15.70
2013,09,26,13,41,15.70
2013,09,26,13,42,15.80
2013,09,26,13,43,15.80
2013,09,26,13,44,15.90
2013,09,26,13,45,15.90
2013,09,26,13,46,15.90
2013,09,26,13,47,15.90
2013,09,26,13,48,15.90
2013,09,26,13,49,15.90
2013,09,26,13,50,15.80
2013,09,26,13,51,15.70
2013,09,26,13,52,15.70
2013,09,26,13,53,15.70
2013,09,26,13,54,15.70
2013,09,26,13,55,15.70
2013,09,26,13,56,15.70
2013,09,26,13,57,15.80
2013,09,26,13,58,15.80
2013,09,26,13,59,15.90
2013,09,26,14,00,15.90
2013,09,26,14,01,15.90
2013,09,26,14,02,16.00
2013,09,26,14,03,16.00
2013,09,26,14,04,16.00
2013,09,26,14,05,16.10
2013,09,26,14,06,16.10
2013,09,26,14,07,16.10
2013,09,26,14,08,16.20
2013,09,26,14,09,16.20
2013,09,26,14,10,16.20
2013,09,26,14,11,16.20
2013,09,26,14,12,16.20
2013,09,26,14,13,16.20
2013,09,26,14,14,16.20
2013,09,26,14,15,16.20
2013,09,26,14,16,16.20
2013,09,26,14,17,16.20
2013,09,26,14,18,16.20
2013,09,26,14,19,16.10
2013,09,26,14,20,16.10
2013,09,26,14,21,16.10
2013,09,26,14,22,16.00
2013,09,26,14,23,16.00
2013,09,26,14,24,15.90
2013,09,26,14,25,15.90
2013,09,26,14,26,15.90
2013,09,26,14,27,16.00
2013,09,26,14,28,16.00
2013,09,26,14,29,16.00
2013,09,26,14,30,16.10
2013,09,26,14,31,16.10
2013,09,26,14,32,16.20
2013,09,26,14,33,16.30
2013,09,26,14,34,16.30
2013,09,26,14,35,16.40
2013,09,26,14,36,16.40
2013,09,26,14,37,16.50
2013,09,26,14,38,16.50
2013,09,26,14,39,16.50
2013,09,26,14,40,16.50
2013,09,26,14,41,16.50
2013,09,26,14,42,16.40
2013,09,26,14,43,16.40
2013,09,26,14,44,16.30
2013,09,26,14,45,16.20
2013,09,26,14,46,16.10
2013,09,26,14,47,16.00
2013,09,26,14,48,15.90
2013,09,26,14,49,15.80
2013,09,26,14,50,15.70
2013,09,26,14,51,15.60
2013,09,26,14,52,15.60
2013,09,26,14,53,15.60
2013,09,26,14,54,15.60
2013,09,26,14,55,15.60
2013,09,26,14,56,15.60
2013,09,26,14,57,15.60
2013,09,26,14,58,15.60
2013,09,26,14,59,15.50
2013,09,26,15,00,15.50
2013,09,26,15,01,15.40
2013,09,26,15,02,15.40
2013,09,26,15,03,15.40
2013,09,26,15,04,15.40
2013,09,26,15,05,15.40
2013,09,26,15,06,15.40
2013,09,26,15,07,15.40
2013,09,26,15,08,15.40
2013,09,26,15,09,15.40
2013,09,26,15,10,15.40
2013,09,26,15,11,15.40
2013,09,26,15,12,15.50
2013,09,26,15,13,15.50
2013,09,26,15,14,15.50
2013,09,26,15,15,15.50
2013,09,26,15,16,15.50
2013,09,26,15,17,15.50
2013,09,26,15,18,15.40
2013,09,26,15,19,15.40
2013,09,26,15,20,15.40
2013,09,26,15,21,15.40
2013,09,26,15,22,15.40
2013,09,26,15,23,15.30
2013,09,26,15,24,15.30
2013,09,26,15,25,15.30
2013,09,26,15,26,15.30
2013,09,26,15,27,15.30
2013,09,26,15,28,15.30
2013,09,26,15,29,15.30
2013,09,26,15,30,15.40
2013,09,26,15,31,15.40
2013,09,26,15,32,15.50
2013,09,26,15,33,15.50
2013,09,26,15,34,15.60
2013,09,26,15,35,15.60
2013,09,26,15,36,15.60
2013,09,26,15,37,15.50
2013,09,26,15,38,15.50
2013,09,26,15,39,15.50
2013,09,26,15,40,15.50
2013,09,26,15,41,15.50
2013,09,26,15,42,15.50
2013,09,26,15,43,15.50
2013,09,26,15,44,15.60
2013,09,26,15,45,15.60
2013,09,26,15,46,15.60
2013,09,26,15,47,15.60
2013,09,26,15,48,15.70
2013,09,26,15,49,15.70
2013,09,26,15,50,15.80
2013,09,26,15,51,15.80
2013,09,26,15,52,15.80
2013,09,26,15,53,15.80
2013,09,26,15,54,15.80
2013,09,26,15,55,15.80
2013,09,26,15,56,15.70
2013,09,26,15,57,15.70
2013,09,26,15,58,15.60
2013,09,26,15,59,15.60
2013,09,26,16,00,15.50
2013,09,26,16,01,15.50
2013,09,26,16,02,15.50
2013,09,26,16,03,15.50
2013,09,26,16,04,15.60
2013,09,26,16,05,15.60
2013,09,26,16,06,15.60
2013,09,26,16,07,15.60
2013,09,26,16,08,15.60
2013,09,26,16,09,15.60
2013,09,26,16,10,15.70
2013,09,26,16,11,15.70
2013,09,26,16,12,15.70
2013,09,26,16,13,15.70
2013,09,26,16,14,15.60
2013,09,26,16,15,15.60
2013,09,26,16,16,15.60
2013,09,26,16,17,15.50
2013,09,26,16,18,15.50
2013,09,26,16,19,15.40
2013,09,26,16,20,15.40
2013,09,26,16,21,15.30
2013,09,26,16,22,15.30
2013,09,26,16,23,15.30
2013,09,26,16,24,15.30
2013,09,26,16,25,15.30
2013,09,26,16,26,15.40
2013,09,26,16,27,15.40
2013,09,26,16,28,15.40
2013,09,26,16,29,15.40
2013,09,26,16,30,15.40
2013,09,26,16,31,15.40
2013,09,26,16,32,15.40
2013,09,26,16,33,15.40
2013,09,26,16,34,15.40
2013,09,26,16,35,15.40
2013,09,26,16,36,15.50
2013,09,26,16,37,15.50
2013,09,26,16,38,15.50
2013,09,26,16,39,15.50
2013,09,26,16,40,15.50
2013,09,26,16,41,15.40
2013,09,26,16,42,15.40
2013,09,26,16,43,15.40
2013,09,26,16,44,15.40
2013,09,26,16,45,15.40
2013,09,26,16,46,15.30
2013,09,26,16,47,15.30
2013,09,26,16,48,15.30
2013,09,26,16,49,15.30
2013,09,26,16,50,15.30
2013,09,26,16,51,15.30
2013,09,26,16,52,15.30
2013,09,26,16,53,15.30
2013,09,26,16,54,15.30
2013,09,26,16,55,15.30
2013,09,26,16,56,15.30
2013,09,26,16,57,15.30
2013,09,26,16,58,15.30
2013,09,26,16,59,15.30
2013,09,26,17,00,15.30
2013,09,26,17,01,15.20
2013,09,26,17,02,15.20
2013,09,26,17,03,15.10
2013,09,26,17,04,15.10
2013,09,26,17,05,15.00
2013,09,26,17,06,15.00
2013,09,26,17,07,15.00
2013,09,26,17,08,15.00
2013,09,26,17,09,15.00
2013,09,26,17,10,15.00
2013,09,26,17,11,14.90
2013,09,26,17,12,14.90
2013,09,26,17,13,14.90
2013,09,26,17,14,14.90
2013,09,26,17,15,14.90
2013,09,26,17,16,14.90
2013,09,26,17,17,14.90
2013,09,26,17,18,14.90
2013,09,26,17,19,15.00
2013,09,26,17,20,15.00
2013,09,26,17,21,15.00
2013,09,26,17,22,15.00
2013,09,26,17,23,15.00
2013,09,26,17,24,15.00
2013,09,26,17,25,15.00
2013,09,26,17,26,15.00
2013,09,26,17,27,14.90
2013,09,26,17,28,14.90
2013,09,26,17,29,14.90
2013,09,26,17,30,14.90
2013,09,26,17,31,14.80
2013,09,26,17,32,14.80
2013,09,26,17,33,14.80
2013,09,26,17,34,14.80
2013,09,26,17,35,14.80
2013,09,26,17,36,14.80
2013,09,26,17,37,14.80
2013,09,26,17,38,14.80
2013,09,26,17,39,14.80
2013,09,26,17,40,14.70
2013,09,26,17,41,14.70
2013,09,26,17,42,14.70
2013,09,26,17,43,14.70